Flag Weather past 2 weeks in Nelson, British Columbia, Canada

Now
42 °F

Quite cool.


Feels Like: 38 °F
Forecast: 10 / 31 °F
Wind: 6 mph from Southwest

Location: Nelson

Current Time: Nov 28, 2014 at 8:05:12 AM

Latest Report: Nov 28, 2014 at 7:00 AM


Visibility: N/A

Pressure: 29.43 "Hg

Humidity: 88%

Dew point: 38 °F

Location of NelsonLocation

Historic Weather in Nelson — Graph

°F

Nelson temperature yesterday

Maximum temperature yesterday: 40 °F (at 3:00 PM)
Minimum temperature yesterday: 33 °F (at 4:00 AM)
Average temperature yesterday: 37 °F

Past Weeks' High & Low Weather Summary

 TemperatureHumidityPressure
High48 °F (Nov 28, 6:00 AM)100% (Nov 22, 3:00 AM)30.73 "Hg (Nov 22, 3:00 AM)
Low18 °F (Nov 16, 7:00 AM)45% (Nov 14, 1:00 PM)29.37 "Hg (Nov 22, 3:00 AM)
Average31 °F84%30.18 "Hg
* Reported Nov 13 6:00 AM — Nov 28 6:00 AM, Nelson, Weather by CustomWeather, © 2014

Note: Actual official high and low records may vary slightly from our data, if they occured in-between our weather recording intervals... More about our weather records

Advertising

Nelson weather history for previous 24 hours

 ConditionsComfort  
Time TempWeatherWind HumidityBarometerVisibility
6:00 AM
Nov 28
48 °FCool.10 mph80%29.42 "HgN/A
5:00 AM42 °FQuite cool.8 mph86%29.46 "HgN/A
4:00 AM41 °FQuite cool.9 mph95%29.49 "HgN/A
3:00 AM40 °FQuite cool.10 mph94%29.52 "HgN/A
2:00 AM40 °FQuite cool.10 mph95%29.55 "HgN/A
1:00 AM40 °FChilly.9 mph95%29.56 "HgN/A
12:00 AM39 °FChilly.2 mph95%29.59 "HgN/A
11:00 PM
Nov 27
38 °FChilly.2 mph95%29.62 "HgN/A
10:00 PM38 °FChilly.2 mph95%29.64 "HgN/A
9:00 PM38 °FChilly.2 mph95%29.65 "HgN/A
8:00 PM38 °FChilly.2 mph94%29.67 "HgN/A
7:00 PM39 °FChilly.2 mph95%29.68 "HgN/A
6:00 PM39 °FChilly.8 mph95%29.70 "HgN/A
5:00 PM38 °FChilly.2 mph94%29.72 "HgN/A
4:00 PM39 °FChilly.2 mph94%29.75 "HgN/A
3:00 PM40 °FChilly.8 mph94%29.75 "HgN/A
2:00 PM39 °FChilly.5 mph94%29.77 "HgN/A
1:00 PM39 °FChilly.6 mph94%29.78 "HgN/A
12:00 PM39 °FChilly.2 mph93%29.82 "HgN/A
11:00 AM39 °FChilly.3 mph91%29.85 "HgN/A
10:00 AM38 °FChilly.7 mph93%29.87 "HgN/A
9:00 AM38 °FChilly.15 mph93%29.86 "HgN/A
8:00 AM38 °FChilly.12 mph93%29.88 "HgN/A
Weather by CustomWeather, © 2014

See weather overviewHow to use our weather pages